Вернуться в каталог

STARLINK-33696

АктивенСвязьVLEO
NORAD 63463·PAYLOAD·🇺🇸 United States

Запущен Apr 6, 2025 с Cape Canaveral Space Force Station

Loading…

Ближайшие Пролёты (ближайшие 24 часа)

TLE

СвежийSource: CelesTrak SupGP

Эпоха: Sep 15, 2026, 03:29 UTC

1 63463C 25070D   26258.14562500 -.00027064  00000+0 -98028-3 0  2580
2 63463  43.0027 269.8535 0001407 266.2711  10.7771 15.27590934    14

Отслеживайте STARLINK-33696 в реальном времени с AllMySat

Download on the App Store